User: anonymous   Login
Location: Caixon
(43.4106°N, 0.0273°E)
Time: 15:59:53
(UTC+00:00)
Language:

COSMOS 2455 - Orbit

View from above orbital plane
View from above orbital plane
View from above satellite
View from above satellite

Ground track
Ground track

The orbit data is extracted from the following two-line orbital elements,

1 36095U 09063A   22022.49107244 -.00000053  00000-0  16096-4 0  9995
2 36095  67.1460 199.4285 0008880 266.6485  93.3584 13.96779286620916
Epoch (UTC): 22 January 2022 11:47:08
Eccentricity: 0.0008880
inclination: 67.1460°
perigee height: 898 km
apogee height: 911 km
right ascension of ascending node: 199.4285°
argument of perigee: 266.6485°
revolutions per day: 13.96779286
mean anomaly at epoch: 93.3584°
orbit number at epoch: 62091

The dashed part of the orbit path shows where the satellite is in the earth's shadow,  

DLR